Content
SEND FEEDBACK

Daily
Averages
Monthly
Summary
United States of America

MAPLE CREEK, CALIFORNIA


Home > North America > United States > California
Elevation: 420 feet     Latitude: 40 46N     Longitude: 123 54W

WEATHER
 
SELECT A DAY
Number of Records: 243,827;   Date Range: 1/1/95 - 10/29/14
 
SHARE

PRINT THIS DATA

[ ← Previous Day ]
WEATHER ALMANAC - FEBRUARY 13, 2013
[ Next Day → ]
[ °C ]   °F
Weather ElementAverageHighLow
Temperature42.5 °F52 °F (3:53 pm)35.6 °F (5:45 am)
Dewpoint40.7 °F45 °F (12:53 pm)35.1 °F (5:53 am)
Humidity93.8 %100 % (12:16 am)74 % (2:53 pm)
Barometer30.41 in30.46 in (8:53 am)30.37 in (4:53 pm)
Wind Speed3 mph17.3 mph (4:53 pm)
Weather ElementAverage
Visibility7.6 mi
Wind DirectionESE (99.6 °)

Weather ElementTotal
Precipitation---
Heating Degree Days21.2 (Base 65)
Averaged from 45 records on February 13, 2013
WEATHER CONDITIONS BREAKOUT
WIND DIRECTION BREAKOUT
WEATHER BY HOUR - FEBRUARY 13, 2013
[ °C ]   °F
Local TimeTemperatureDewpointHumidityBarometerVisibilityWind DirectionWind SpeedGust SpeedPrecipitationEventsConditions
12:16 AM37.4 °F37.4 °F100 %30.42 in5.0 miNW (320°)3.5 mphScattered Clouds
12:25 AM39.2 °F39.2 °F100 %30.42 in2.5 miNorth (350°)3.5 mphMostly Cloudy
12:36 AM42.8 °F41.0 °F93 %30.42 in6.0 miCalmOvercast
12:45 AM41.0 °F39.2 °F93 %30.42 in7.0 miEast (100°)4.6 mphOvercast
12:53 AM42.1 °F41.0 °F96 %30.44 in9.0 miEast (90°)4.6 mphOvercast
1:29 AM42.8 °F42.8 °F100 %30.42 in10.0 miEast (100°)4.6 mphMostly Cloudy
1:37 AM42.8 °F42.8 °F100 %30.41 in10.0 miEast (90°)4.6 mphScattered Clouds
1:53 AM39.9 °F39.9 °F100 %30.44 in9.0 miCalmClear
2:21 AM39.2 °F37.4 °F93 %30.42 in10.0 miCalmMostly Cloudy
2:53 AM41.0 °F39.9 °F96 %30.44 in9.0 miCalmOvercast
3:13 AM42.8 °F42.8 °F100 %30.41 in10.0 miEast (90°)3.5 mphOvercast
4:53 AM41.0 °F39.9 °F96 %30.43 in10.0 miCalmScattered Clouds
5:45 AM35.6 °F35.6 °F100 %30.40 in1.8 miCalmClear
5:49 AM35.6 °F35.6 °F100 %30.40 in0.8 miCalmMist
5:53 AM36.0 °F35.1 °F97 %30.43 in1.0 miCalmMist
5:56 AM37.4 °F35.6 °F93 %30.40 in2.0 miCalmScattered Clouds
6:03 AM37.4 °F37.4 °F100 %30.40 in6.0 miCalmPartly Cloudy
6:15 AM37.4 °F37.4 °F100 %30.40 in1.8 miCalmPartly Cloudy
6:25 AM37.4 °F37.4 °F100 %30.41 in4.0 miCalmClear
6:42 AM37.4 °F37.4 °F100 %30.41 in9.0 miCalmMostly Cloudy
6:50 AM37.4 °F37.4 °F100 %30.41 in6.0 miCalmMostly Cloudy
6:53 AM37.9 °F37.9 °F100 %30.44 in6.0 miCalmOvercast
7:00 AM39.2 °F39.2 °F100 %30.41 in7.0 miEast (90°)3.5 mphOvercast
7:53 AM41.0 °F41.0 °F100 %30.45 in7.0 miCalmOvercast
8:31 AM42.8 °F41.0 °F93 %30.43 in8.0 miESE (110°)3.5 mphScattered Clouds
8:53 AM44.1 °F43.0 °F96 %30.46 in9.0 miCalmMostly Cloudy
9:53 AM45.0 °F43.0 °F93 %30.46 in9.0 miCalmOvercast
10:24 AM46.4 °F42.8 °F87 %30.44 in10.0 miCalmMostly Cloudy
10:34 AM48.2 °F42.8 °F82 %30.43 in10.0 miCalmScattered Clouds
10:53 AM48.9 °F44.1 °F83 %30.45 in10.0 miSW (220°)3.5 mphClear
11:53 AM48.9 °F44.1 °F83 %30.45 in8.0 miNW (320°)8.1 mphClear
12:53 PM50.0 °F45.0 °F83 %30.43 in10.0 miNW (320°)10.4 mphClear
1:53 PM50.0 °F44.1 °F80 %30.41 in10.0 miNNW (330°)9.2 mphClear
2:53 PM51.1 °F43.0 °F74 %30.39 in10.0 miNNW (330°)13.8 mphClear
3:53 PM52.0 °F45.0 °F77 %30.38 in10.0 miNNW (340°)15.0 mphClear
4:53 PM50.0 °F45.0 °F83 %30.37 in9.0 miNNW (340°)17.3 mphClear
5:53 PM48.9 °F45.0 °F86 %30.37 in6.0 miNNW (340°)9.2 mphClear
6:53 PM46.9 °F44.1 °F90 %30.38 in8.0 miNorth (360°)3.5 mphClear
7:53 PM46.0 °F44.1 °F93 %30.39 in10.0 miCalmClear
8:53 PM42.1 °F41.0 °F96 %30.39 in10.0 miCalmClear
9:25 PM39.2 °F39.2 °F100 %30.37 in8.0 miCalmScattered Clouds
9:33 PM41.0 °F39.2 °F93 %30.37 in10.0 miCalmMostly Cloudy
9:53 PM42.1 °F41.0 °F96 %30.40 in9.0 miESE (120°)3.5 mphOvercast
10:53 PM43.0 °F43.0 °F100 %30.40 in10.0 miESE (120°)3.5 mphOvercast
11:53 PM44.1 °F43.0 °F96 %30.40 in10.0 miCalmOvercast
Hourly data recorded from KACV, located miles away from Maple Creek, California







STORIES FROM OUR PARTNERS